ATLAS 5 CENTAUR DEB, 44648

Orbit data source: Space-Track

ATLAS 5 CENTAUR DEB, 44648 is space debris in HEO originally from a launch on Wed, 17 Oct 2018 UTC launched from the Air Force Eastern Test Range (AFETR). Debris objects in space refer to the collection of defunct objects orbiting the Earth. Examples of debris include non-operational satellites, rocket bodies, and fragments generated from explosions, collisions, or faulty payload assembly.

Loading next visibility...
Identifier
44648, 2018-079J
Orbit
HEO
Last TLE update
1 week ago
Origin
Flag of USUnited Launch Alliance/Lockheed Martin (US)
Manufacturer
ULA Decatur
Mission
Spacecraft
Bus & Motor
Unknown
Mass
Unknown
Launch date (UTC)
2018-10-17 (7 years ago)
Launch vehicle
Unknown
Launch site
Air Force Eastern Test Range (AFETR)
Object type
Payload
Rocket body
Debris
Shape & HBR
Unknown
Radar Cross Section
RCS unknown

Expand to show TLE details & history

TLE from 1 week ago
0 ATLAS 5 CENTAUR DEB
1 44648U 18079J   25175.07951001 -.00000123  00000-0  00000-0 0  9991
2 44648  12.7938  55.5163 4456314 283.8710  31.6475  1.92370599 46819
Epoch: 2025-06-24T01:54Z
TLE epoch observation values (Epoch: 2025-06-24T01:54:29.664Z)
Latitude
0.00007°
Longitude
114.35895°
Altitude
13,425.776 km
Speed
5.065 km/s
True Right ascension
03h 41m 51s
True Declination
0° 00' 00"
Sunlit
Object was in daylight at epoch
Visualization orbit readout
Latitude
12.06665°
Longitude
-136.17683°
Altitude
32,988.935 km
Speed
2.378 km/s
Apparent Right ascension
10h 41m 48s
Apparent Declination
6° 51' 26"
Sunlit
Object is in daylight
Visualization observer readout
Local Sidereal Time
13:13:03
Azimuth
235.924° WSW
Elevation
42.705°
Doppler factor
1
Orbital elements
Apogee altitude
33,103.971 km
Perigee altitude
8,762.404 km
Semi-major axis
27,311.324 km
Eccentricity
0.44563
Inclination
12.7938°
RAAN
55.5163°
Arg. of periapsis
283.871°
True anomaly
Unknown
Mean anomaly
31.6475°
Eccentric anomaly
Unknown
Mean motion
0.48087 °/min
Orbital period
748.64 mins
BSTAR
0
Loading maneuver chart data...
Loading SW <> Apogee altitude chart data...

ATLAS 5 CENTAUR DEB Visibility forecast

Observer location: undefined°, undefined°

Span
Click to sort rows by Start time (UTC) header in descending order
Start Az.
Max El. time (UTC)
Max El. Az.
Max El.
End time (UTC)
End Az.
326 mins2025-07-01 01:36:03.697Z235.905° WSW2025-07-01 01:36:03.697Z235.905° WSW34.14°2025-07-01 07:02:03.697Z151.239° SSE
239 mins2025-07-01 21:37:03.697Z254.174° W2025-07-02 00:36:03.697Z248.038° W29.451°2025-07-02 01:36:03.697Z249.499° W
|